Weather observations for the past three days for
Wenatchee - Pangborn Memorial Airport
Imperial (Metric)
Date Time (pdt) Wind (mph) Vis. (mi.) Weather Sky Cond. Temperature (ºF) Relative Humidity Wind Chill (°F) Heat Index (°F) Pressure Precipitation (in)
Air Dwpt 6 hour altimeter (in) sea level (mb) 1 hr 3 hr 6 hr
Max. Min.
17 21:55 S 6 10.00 Fair CLR 84.9 45 25% 82 29.91 1011.6
17 20:55 NW 9 10.00 Fair CLR 88 44.1 22% 85 29.9 1011.2
17 19:55 NW 10 10.00 Fair CLR 90 44.1 20% 86 29.89 1011.1
17 18:55 W 13 10.00 Fair CLR 91.9 45 20% 88 29.89 1010.9
17 17:55 W 15 10.00 Fair CLR 93 42.1 17% 89 29.88 1010.7
17 16:55 W 6 10.00 Fair CLR 93.9 43 93.9 82 17% 90 29.9 1011.2
17 15:55 SE 3 10.00 Fair CLR 93 48 21% 90 29.9 1011.4
17 14:55 E 7 9.00 Partly Cloudy FEW046 SCT095 SCT120 91 48.9 24% 88 29.92 1011.9
17 13:55 S 6 10.00 Fair CLR 91.9 46.9 21% 88 29.93 1012.1
17 12:55 SW 5 10.00 Fair CLR 88 48 25% 85 29.93 1012.3
17 11:55 W 10 10.00 Fair CLR 88 46.9 24% 85 29.93 1012.4
17 10:55 N 8 10.00 Fair CLR 82 50 82 69.1 33% 81 29.95 1012.9
17 09:55 Calm 10.00 Fair CLR 78.1 48.9 36% 79 29.97 1013.7
17 08:55 Calm 10.00 Fair CLR 73 50 44% 29.98 1014.1
17 07:55 SW 6 10.00 Fair CLR 72 51.1 48% 29.98 1014.3
17 06:55 W 8 10.00 Fair CLR 72 46 40% 29.95 1013.0
17 05:55 W 13 10.00 Fair CLR 71.1 48 44% 29.94 1012.6
17 04:55 NW 10 10.00 Fair CLR 72 48 84 72 43% 29.92 1012.0
17 03:55 W 10 10.00 Fair CLR 73 48 41% 29.92 1011.9
17 02:55 W 12 10.00 Fair CLR 75 46 36% 77 29.91 1011.6
17 01:55 W 13 10.00 Fair CLR 77 44.1 31% 78 29.9 1011.2
17 00:55 NW 10 10.00 Fair CLR 80.1 44.1 28% 79 29.9 1011.1
16 23:55 Calm 10.00 Fair CLR 78.1 41 27% 78 29.89 1011.1
16 22:55 NW 3 10.00 Fair CLR 84 37.9 98.1 78.1 19% 81 29.89 1010.8
16 21:55 SW 7 10.00 Fair CLR 86 39.9 20% 83 29.88 1010.5
16 20:55 NE 5 10.00 Fair CLR 86 43 22% 83 29.87 1010.3
16 19:55 E 8 10.00 Fair CLR 90 43 19% 86 29.87 1010.2
16 18:55 SE 8 10.00 Fair CLR 93.9 42.1 17% 90 29.87 1010.1
16 17:55 SE 13 10.00 Fair CLR 96.1 45 17% 92 29.88 1010.4
16 16:55 SE 12 10.00 Fair CLR 97 46 98.1 81 17% 93 29.89 1010.8
16 15:55 SE 12 10.00 Fair CLR 97 45 17% 93 29.9 1011.0
16 14:55 SE 13 10.00 Fair CLR 97 45 17% 93 29.91 1011.5
16 13:55 E 8 10.00 Fair CLR 95 43 17% 91 29.93 1012.1
16 12:55 E 6 10.00 Fair CLR 90 50 25% 87 29.95 1012.9
16 11:55 Vrbl 5 10.00 Fair CLR 84.9 50 30% 83 29.97 1013.6
16 10:55 W 8 10.00 Fair CLR 81 51.1 81 68 35% 80 29.98 1014.1
16 09:55 NW 13 10.00 Fair CLR 77 51.1 40% 78 29.99 1014.4
16 08:55 NW 14 10.00 Fair CLR 73.9 51.1 45% 29.99 1014.5
16 07:55 NW 14 10.00 Fair CLR 73.9 51.1 45% 29.99 1014.3
16 06:55 W 8 10.00 Fair CLR 69.1 53.1 57% 29.98 1014.0
16 05:55 SW 7 10.00 Fair CLR 68 53.1 59% 29.97 1013.7
16 04:55 Vrbl 7 10.00 Fair CLR 69.1 53.1 81 69.1 57% 29.95 1013.1
16 03:55 N 14 G 22 10.00 Fair CLR 72 53.1 52% 29.94 1012.5
16 02:55 NW 14 10.00 Fair CLR 73 53.1 50% 29.93 1012.5
16 01:55 NW 13 10.00 Fair CLR 73.9 53.1 48% 29.93 1012.2
16 00:55 NW 14 10.00 Fair CLR 75.9 53.1 45% 78 29.93 1012.2
15 23:55 NW 14 10.00 Fair CLR 78.1 53.1 42% 79 29.92 1012.0
15 22:55 W 15 10.00 Fair CLR 81 52 98.1 81 37% 80 29.91 1011.7
15 21:55 NW 15 10.00 Fair CLR 82.9 51.1 33% 81 29.91 1011.6
15 20:55 W 15 G 22 10.00 Fair CLR 86 50 29% 84 29.89 1011.0
15 19:55 NW 16 10.00 Fair CLR 91 48 23% 88 29.87 1010.1
15 18:55 NW 20 G 29 10.00 Fair CLR 95 43 17% 91 29.85 1009.4
15 17:55 NW 14 10.00 Fair CLR 97 42.1 15% 93 29.85 1009.5
15 16:55 S 9 10.00 Fair CLR 95 45 96.1 84 18% 91 29.86 1009.9
15 15:55 Calm 10.00 Fair CLR 95 42.1 16% 91 29.88 1010.5
15 14:55 Calm 10.00 Fair CLR 93 41 16% 89 29.9 1011.1
15 13:55 SW 7 10.00 Fair CLR 91.9 42.1 18% 88 29.91 1011.5
15 12:55 Calm 10.00 Fair CLR 90 42.1 19% 86 29.93 1012.2
15 11:55 W 10 10.00 Fair CLR 87.1 43 21% 84 29.94 1012.7
15 10:55 W 12 10.00 Fair CLR 84 48.9 84 72 30% 82 29.96 1013.2
15 09:55 NW 15 10.00 Fair CLR 82 48.9 32% 81 29.96 1013.5
15 08:55 NW 16 10.00 Fair CLR 78.1 48.9 36% 79 29.97 1013.5
15 07:55 NW 17 10.00 Fair CLR 75.9 50 40% 78 29.96 1013.5
15 06:55 NW 15 10.00 Fair CLR 73.9 48.9 41% 29.95 1013.2
15 05:55 NW 13 10.00 Fair CLR 73 48.9 43% 29.95 1012.8
15 04:55 NW 16 10.00 Fair CLR 73.9 48.9 81 73.9 41% 29.94 1012.5
15 03:55 W 15 10.00 Fair CLR 75 48.9 40% 77 29.93 1012.1
15 02:55 W 14 10.00 Fair CLR 75 48.9 40% 77 29.92 1011.7
15 01:55 NW 16 10.00 Fair CLR 77 50 39% 78 29.91 1011.3
15 00:55 W 14 10.00 Fair CLR 78.1 50 37% 79 29.91 1011.5
14 23:55 W 17 10.00 Fair CLR 80.1 48 33% 79 29.9 1011.0
14 22:55 NW 12 10.00 Fair CLR 80.1 44.1 98.1 80.1 28% 79 29.89 1010.9
Date Time (pdt) Wind (mph) Vis. (mi.) Weather Sky Cond. Air Dwpt Max. Min. Relative Humidity Wind Chill (°F) Heat Index (°F) altimeter (in) sea level (mb) 1 hr 3 hr 6 hr
6 hour
Temperature (ºF) Pressure Precipitation (in)